SCP
0 0 0 0 0 0 0 0 0 0 0 0 0 0 0 0 0 0 0 0 0 0 0 0 0 0 0 0 0 0 0 0 0 0 0 0 0 0 0 0 0 0 0
0 0 0 0 0 0 0 0 0 0 0 0 0 0 0 0 0 0 0 0 0 0 0 0 0 0 0 0 0 0 0 0 0 0 0 0 0 0 0 0 0 0 0
0 0 0 0 0 0 0 0 0 0 0 0 0 0 0 0 0 0 0 0 0 0 0 0 0 0 0 0 0 0 0 0 0 0 0 0 0 0 0 0 0 0 0
0 0 0 0 0 0 0 0 0 0 0 0 0 0 0 0 0 0 0 0 0 0 0 0 0 0 0 0 0 0 0 0 0 0 0 0 0 0 0 0 0 0 0
0 0 0 0 0 0 0 0 0 0 0 0 0 0 0 0 0 0 0 0 0 0 0 0 0 0 0 0 0 0 0 0 0 0 0 0 0 0 0 0 0 0 0
0 0 0 0 0 0 0 0 0 0 0 0 0 0 0 0 0 0 0 0 0 0 0 0 0 0 0 0 0 0 0 0 0 0 0 0 0 0 0 0 0 0 0
0 0 0 0 0 0 0 0 0 0 0 0 0 0 0 0 0 0 0 0 0 0 0 0 0 0 0 0 0 0 0 0 0 0 0 0 0 0 0 0 0 0 0
0 0 0 0 0 0 0 0 0 0 0 0 0 0 0 0 0 0 0 0 0 0 0 0 0 0 0 0 0 0 0 0 0 0 0 0 0 0 0 0 0 0 0
0 0 0 0 0 0 0 0 0 0 0 0 0 0 0 0 0 0 0 0 0 0 0 0 0 0 0 0 0 0 0 0 0 0 0 0 0 0 0 0 0 0 0
0 0 0 0 0 0 0 0 0 0 0 0 0 0 0 0 0 0 0 0 0 0 0 0 0 0 0 0 0 0 0 0 0 0 0 0 0 0 0 0 0 0 0
0 0 0 0 0 0 0 0 0 0 0 0 0 0 0 0 0 0 0 0 0 0 0 0 0 0 0 0 0 0 0 0 0 0 0 0 0 0 0 0 0 0 0
0 0 0 0 0 0 0 0 0 0 0 0 0 0 0 0 0 0 0 0 0 0 0 0 0 0 0 0 0 0 0 0 0 0 0 0 0 0 0 0 0 0 0
0 0 0 0 0 0 0 0 0 0 0 0 0 0 0 0 0 0 0 0 0 0 0 0 0 0 0 0 0 0 0 0 0 0 0 0 0 0 0 0 0 0 0
0 0 0 0 0 0 0 0 0 0 0 0 0 0 0 0 0 0 0 0 0 0 0 0 0 0 0 0 0 0 0 0 0 0 0 0 0 0 0 0 0 0 0
0 0 0 0 0 0 0 0 0 0 0 0 0 0 0 0 0 0 0 0 0 0 0 0 0 0 0 0 0 0 0 0 0 0 0 0 0 0 0 0 0 0 0
0 0 0 0 0 0 0 0 0 0 0 0 0 0 0 0 0 0 0 0 0 0 0 0 0 0 0 0 0 0 0 0 0 0 0 0 0 0 0 0 0 0 0
0 0 0 0 0 0 0 0 0 0 0 0 0 0 0 0 0 0 0 0 0 0 0 0 0 0 0 0 0 0 0 0 0 0 0 0 0 0 0 0 0 0 0
0 0 0 0 0 0 0 0 0 0 0 0 0 0 0 0 0 0 0 0 0 0 0 0 0 0 0 0 0 0 0 0 0 0 0 0 0 0 0 0 0 0 0
0 0 0 0 0 0 0 0 0 0 0 0 0 0 0 0 0 0 0 0 0 0 0 0 0 0 0 0 0 0 0 0 0 0 0 0 0 0 0 0 0 0 0
0 0 0 0 0 0 0 0 0 0 0 0 0 0 0 0 0 0 0 0 0 0 0 0 0 0 0 0 0 0 0 0 0 0 0 0 0 0 0 0 0 0 0
0 0 0 0 0 0 0 0 0 0 0 0 0 0 0 0 0 0 0 0 0 0 0 0 0 0 0 0 0 0 0 0 0 0 0 0 0 0 0 0 0 0 0
0 0 0 0 0 0 0 0 0 0 0 0 0 0 0 0 0 0 0 0 0 0 0 0 0 0 0 0 0 0 0 0 0 0 0 0 0 0 0 0 0 0 0
0 0 0 0 0 0 0 0 0 0 0 0 0 0 0 0 0 0 0 0 0 0 0 0 0 0 0 0 0 0 0 0 0 0 0 0 0 0 0 0 0 0 0
0 0 0 0 0 0 0 0 0 0 0 0 0 0 0 0 0 0 0 0 0 0 0 0 0 0 0 0 0 0 0 0 0 0 0 0 0 0 0 0 0 0 0
0 0 0 0 0 0 0 0 0 0 0 0 0 0 0 0 0 0 0 0 0 0 0 0 0 0 0 0 0 0 0 0 0 0 0 0 0 0 0 0 0 0 0
0 0 0 0 0 0 0 0 0 0 0 0 0 0 0 0 0 0 0 0 0 0 0 0 0 0 0 0 0 0 0 0 0 0 0 0 0 0 0 0 0 0 0
Wind_Speed_500mb
85 80 77 76 76 75 73 67 62 57 53 52 49 47 47 44 40 43 48 49 52 55 58 60 60 59 59 60 57 60 57 74 78 83 74 70 66 65 60 59 71 78 74
93 86 82 76 74 74 71 67 62 57 55 52 50 48 48 43 43 47 49 52 55 54 54 57 53 52 52 58 57 58 58 52 54 63 74 67 63 57 57 60 65 65 68
77 75 74 71 68 68 65 63 61 59 56 52 51 53 46 45 47 49 50 53 53 52 52 55 56 56 62 58 58 59 61 61 61 61 64 60 57 54 58 56 58 53 58
65 70 69 66 63 61 58 59 59 58 58 59 56 52 51 52 51 51 50 52 53 57 54 54 57 61 58 61 65 61 58 56 54 51 56 57 60 57 54 57 55 58 63
59 61 60 58 58 58 58 57 57 57 55 53 53 51 50 49 50 51 52 51 52 54 52 62 58 58 62 58 58 56 58 57 57 52 48 51 53 55 57 55 55 50 54
49 49 51 53 55 55 54 53 52 52 51 50 47 48 49 50 50 47 45 42 44 47 50 53 52 52 49 48 47 41 37 33 35 37 39 40 43 47 44 46 46 47 58
45 46 46 46 45 45 45 46 46 45 43 42 42 41 38 36 35 32 32 34 38 41 43 44 44 42 41 38 31 23 27 31 35 37 39 35 36 29 30 37 47 50 53
46 44 42 41 41 42 43 43 43 42 40 38 36 34 32 30 32 33 34 32 32 33 34 32 28 30 30 30 29 28 32 30 34 32 33 32 31 28 31 34 32 36 50
47 44 42 41 41 42 43 42 41 40 39 37 34 34 33 33 32 29 27 23 22 25 26 25 23 24 27 24 26 27 29 26 23 20 18 17 19 22 23 31 38 46 52
52 48 45 44 43 42 41 41 41 40 38 36 36 37 34 28 25 23 21 18 19 19 20 22 20 23 27 26 27 21 22 18 17 15 13 16 19 23 30 35 40 42 43
56 52 49 46 44 43 43 44 43 42 41 39 37 32 28 22 17 13 13 14 17 19 20 19 20 20 21 25 24 21 21 19 17 14 14 17 21 25 28 32 34 38 43
62 59 55 51 50 50 49 48 46 43 41 39 36 30 24 18 15 13 15 14 14 16 16 16 17 16 18 22 23 17 14 13 13 13 16 16 19 19 22 27 32 38 43
72 66 60 56 54 53 51 49 47 46 44 40 36 30 24 19 17 16 12 10 7 7 7 9 9 13 16 19 21 20 16 16 17 17 19 20 22 25 28 33 36 40 47
77 73 66 60 58 56 52 50 49 48 47 42 35 29 23 19 16 13 9 8 9 8 5 5 8 11 12 15 16 18 20 21 22 22 23 25 27 29 31 33 39 43 52
79 72 65 59 58 58 57 54 52 47 36 32 30 25 21 19 17 13 11 8 5 3 2 3 1 1 4 7 11 14 16 18 19 22 24 25 26 28 28 30 34 39 44
76 71 64 62 61 61 61 60 54 44 42 39 33 26 22 19 17 17 15 12 9 5 1 1 2 4 7 10 13 15 17 21 21 20 24 27 29 31 32 32 34 37 42
63 63 64 63 65 66 65 63 62 53 46 40 33 26 26 25 24 19 15 12 9 3 1 4 7 10 13 16 16 19 20 21 24 25 27 27 28 31 32 34 37 38 42
57 56 58 62 65 65 64 59 52 48 48 41 34 32 31 28 24 19 14 10 6 3 3 7 10 14 17 21 25 27 29 30 32 32 31 31 31 32 36 35 37 39 41
51 55 56 57 57 58 55 51 45 42 38 37 39 37 32 27 22 17 13 9 6 8 11 14 18 22 25 28 31 33 34 35 35 35 35 37 38 40 41 37 39 43 45
49 50 56 59 63 61 56 53 51 45 42 41 40 37 34 27 22 17 12 10 11 14 17 21 24 27 29 31 31 31 31 32 34 34 36 38 41 43 47 50 51 51 49
48 52 53 55 56 56 55 53 48 46 47 47 43 38 31 24 17 13 13 15 18 21 22 24 26 27 28 28 27 27 27 29 30 31 33 35 37 40 42 45 49 51 53
40 45 49 50 53 55 53 51 51 51 49 46 41 35 29 24 20 17 18 19 21 23 23 23 24 24 22 22 22 22 22 24 26 28 31 33 35 37 39 42 43 44 46
32 35 40 45 48 52 53 52 52 50 46 40 35 29 25 17 20 21 22 24 27 27 27 25 24 22 20 20 21 23 25 28 30 34 38 40 40 40 41 43 43 44 44
23 27 32 37 41 43 44 43 42 39 35 32 29 20 24 28 24 28 29 29 30 31 31 29 25 23 22 23 25 28 30 33 37 40 44 44 43 44 44 45 43 42 41
20 23 27 30 32 33 34 35 33 31 30 24 29 32 30 34 39 37 34 33 33 34 34 33 31 29 28 28 29 30 32 36 40 44 46 46 47 46 45 45 44 43 39
17 21 23 25 26 28 29 30 31 32 35 40 43 42 45 49 44 39 42 40 38 37 37 37 36 36 36 35 35 36 37 39 41 43 45 46 46 45 45 44 42 40 37
Wind_Direction_500mb
230 233 238 240 240 242 245 249 252 255 258 261 261 260 260 260 262 263 265 268 269 272 272 278 279 282 286 293 297 297 294 292 293 287 296 302 302 298 297 295 272 252 250
236 242 241 241 240 242 244 248 251 253 254 257 258 257 257 257 259 262 264 265 269 270 273 273 282 282 286 288 289 287 291 286 287 292 297 297 298 300 295 288 271 265 248
232 233 236 239 240 241 243 245 246 248 250 251 252 252 255 256 257 259 258 261 263 266 271 270 267 273 279 279 279 285 285 291 290 287 293 295 297 300 294 290 273 263 243
227 229 233 235 236 238 238 238 239 241 243 244 247 250 249 250 250 249 254 257 260 262 258 263 270 274 272 275 276 280 284 286 287 293 297 297 296 294 287 276 264 257 241
223 225 228 230 231 233 234 234 237 239 242 246 248 248 245 246 245 248 249 252 256 260 255 265 270 275 277 280 282 281 277 279 285 291 295 296 295 290 287 283 273 257 241
215 218 221 223 225 228 230 232 236 239 241 242 244 245 246 245 247 250 252 253 257 260 265 271 274 277 280 279 279 286 292 295 291 290 292 292 299 295 289 280 265 253 246
216 213 213 215 218 221 224 227 228 230 232 233 234 235 238 241 247 257 263 264 267 271 271 275 283 287 292 295 295 298 296 296 299 288 285 289 283 285 277 267 261 257 254
205 205 206 208 210 214 217 220 222 224 226 228 229 233 238 244 252 258 264 271 273 274 279 286 288 288 292 296 290 291 285 279 280 282 283 283 288 289 282 273 262 253 263
207 209 211 214 217 219 221 223 224 225 227 230 232 235 240 244 254 263 271 271 267 267 275 278 285 280 283 289 290 283 284 282 276 274 282 287 302 300 281 262 258 270 268
213 217 217 220 222 224 224 225 224 224 227 228 230 232 236 237 244 252 264 265 264 267 273 282 286 293 294 290 295 300 289 293 303 299 297 297 296 286 275 273 269 261 269
217 215 216 219 223 225 226 226 225 225 224 224 224 224 225 229 242 251 260 264 264 260 260 269 275 279 283 289 295 288 287 295 293 290 288 290 290 287 284 282 271 271 275
215 214 215 221 227 230 229 228 224 223 220 216 211 207 205 211 226 244 248 253 258 258 266 267 274 291 299 293 288 284 292 297 295 296 292 292 290 287 283 279 272 271 275
212 214 217 224 229 230 229 225 219 215 211 206 199 196 197 204 217 224 222 222 232 253 277 288 287 292 296 296 290 291 294 283 285 290 290 288 283 281 277 278 276 280 285
214 216 219 222 223 221 218 214 211 207 201 197 196 196 196 200 201 201 209 221 219 221 238 274 304 305 299 285 287 297 301 298 295 293 290 290 288 288 285 285 283 285 289
213 216 218 219 217 213 209 206 200 195 192 198 193 190 191 188 189 188 194 191 179 170 214 225 297 296 294 288 301 309 304 297 295 297 300 302 301 297 294 290 290 294 295
213 214 216 215 210 206 199 190 184 189 193 188 186 184 184 181 175 179 177 174 171 164 212 16 20 6 346 349 350 344 335 332 328 317 312 309 307 305 303 300 297 297 300
217 219 214 209 204 198 192 191 186 181 183 181 180 177 171 178 178 176 172 175 167 167 84 347 351 350 344 340 334 330 330 328 323 317 313 311 310 308 309 309 307 304 304
215 215 212 204 198 194 192 192 195 194 188 180 173 175 177 178 176 176 176 180 176 178 291 317 319 316 315 319 319 316 313 312 310 310 311 309 307 306 305 304 302 300 302
209 206 203 197 192 193 191 192 191 186 179 178 179 178 178 179 181 182 185 193 230 271 293 302 307 309 308 308 307 308 309 307 304 303 302 301 300 302 300 300 301 303 303
203 203 199 195 193 192 193 194 189 184 180 178 178 181 183 182 187 191 205 234 261 280 290 296 300 303 306 306 306 305 304 303 303 304 304 301 298 296 293 292 288 287 287
198 198 197 196 195 195 194 192 188 183 181 180 183 182 181 187 199 215 237 259 276 285 291 296 298 300 304 305 307 309 311 310 312 316 314 309 309 306 302 299 297 295 293
206 204 202 199 196 192 189 186 184 182 182 184 183 184 193 204 213 234 255 268 276 283 286 289 295 299 300 301 305 310 314 317 322 324 323 322 321 317 313 311 307 303 300
210 208 200 193 191 188 185 184 183 184 186 189 194 201 210 225 244 254 270 281 284 287 288 289 291 293 294 296 301 308 314 318 322 324 326 327 327 323 320 317 315 312 309
188 186 188 186 183 184 184 184 186 190 195 203 211 227 241 246 264 274 277 278 282 284 285 283 278 275 280 287 294 302 310 315 319 320 319 319 318 318 316 313 313 312 311
170 174 179 182 186 191 195 198 202 209 218 229 244 252 268 274 272 270 275 277 277 275 273 271 270 272 275 281 289 297 303 307 308 310 313 314 314 314 313 313 312 312 313
196 199 202 205 209 214 221 227 234 241 245 247 252 257 262 264 264 271 272 272 270 268 266 267 270 273 277 282 285 289 295 300 303 303 303 305 307 308 308 308 309 310 309
Wind_Speed_850mb
85 80 77 76 76 75 73 67 62 57 53 52 49 47 47 44 40 43 48 49 52 55 58 60 60 59 59 60 57 60 57 74 78 83 74 70 66 65 60 59 71 78 74
93 86 82 76 74 74 71 67 62 57 55 52 50 48 48 43 43 47 49 52 55 54 54 57 53 52 52 58 57 58 58 52 54 63 74 67 63 57 57 60 65 65 68
77 75 74 71 68 68 65 63 61 59 56 52 51 53 46 45 47 49 50 53 53 52 52 55 56 56 62 58 58 59 61 61 61 61 64 60 57 54 58 56 58 53 58
65 70 69 66 63 61 58 59 59 58 58 59 56 52 51 52 51 51 50 52 53 57 54 54 57 61 58 61 65 61 58 56 54 51 56 57 60 57 54 57 55 58 63
59 61 60 58 58 58 58 57 57 57 55 53 53 51 50 49 50 51 52 51 52 54 52 62 58 58 62 58 58 56 58 57 57 52 48 51 53 55 57 55 55 50 54
49 49 51 53 55 55 54 53 52 52 51 50 47 48 49 50 50 47 45 42 44 47 50 53 52 52 49 48 47 41 37 33 35 37 39 40 43 47 44 46 46 47 58
45 46 46 46 45 45 45 46 46 45 43 42 42 41 38 36 35 32 32 34 38 41 43 44 44 42 41 38 31 23 27 31 35 37 39 35 36 29 30 37 47 50 53
46 44 42 41 41 42 43 43 43 42 40 38 36 34 32 30 32 33 34 32 32 33 34 32 28 30 30 30 29 28 32 30 34 32 33 32 31 28 31 34 32 36 50
47 44 42 41 41 42 43 42 41 40 39 37 34 34 33 33 32 29 27 23 22 25 26 25 23 24 27 24 26 27 29 26 23 20 18 17 19 22 23 31 38 46 52
52 48 45 44 43 42 41 41 41 40 38 36 36 37 34 28 25 23 21 18 19 19 20 22 20 23 27 26 27 21 22 18 17 15 13 16 19 23 30 35 40 42 43
56 52 49 46 44 43 43 44 43 42 41 39 37 32 28 22 17 13 13 14 17 19 20 19 20 20 21 25 24 21 21 19 17 14 14 17 21 25 28 32 34 38 43
62 59 55 51 50 50 49 48 46 43 41 39 36 30 24 18 15 13 15 14 14 16 16 16 17 16 18 22 23 17 14 13 13 13 16 16 19 19 22 27 32 38 43
72 66 60 56 54 53 51 49 47 46 44 40 36 30 24 19 17 16 12 10 7 7 7 9 9 13 16 19 21 20 16 16 17 17 19 20 22 25 28 33 36 40 47
77 73 66 60 58 56 52 50 49 48 47 42 35 29 23 19 16 13 9 8 9 8 5 5 8 11 12 15 16 18 20 21 22 22 23 25 27 29 31 33 39 43 52
79 72 65 59 58 58 57 54 52 47 36 32 30 25 21 19 17 13 11 8 5 3 2 3 1 1 4 7 11 14 16 18 19 22 24 25 26 28 28 30 34 39 44
76 71 64 62 61 61 61 60 54 44 42 39 33 26 22 19 17 17 15 12 9 5 1 1 2 4 7 10 13 15 17 21 21 20 24 27 29 31 32 32 34 37 42
63 63 64 63 65 66 65 63 62 53 46 40 33 26 26 25 24 19 15 12 9 3 1 4 7 10 13 16 16 19 20 21 24 25 27 27 28 31 32 34 37 38 42
57 56 58 62 65 65 64 59 52 48 48 41 34 32 31 28 24 19 14 10 6 3 3 7 10 14 17 21 25 27 29 30 32 32 31 31 31 32 36 35 37 39 41
51 55 56 57 57 58 55 51 45 42 38 37 39 37 32 27 22 17 13 9 6 8 11 14 18 22 25 28 31 33 34 35 35 35 35 37 38 40 41 37 39 43 45
49 50 56 59 63 61 56 53 51 45 42 41 40 37 34 27 22 17 12 10 11 14 17 21 24 27 29 31 31 31 31 32 34 34 36 38 41 43 47 50 51 51 49
48 52 53 55 56 56 55 53 48 46 47 47 43 38 31 24 17 13 13 15 18 21 22 24 26 27 28 28 27 27 27 29 30 31 33 35 37 40 42 45 49 51 53
40 45 49 50 53 55 53 51 51 51 49 46 41 35 29 24 20 17 18 19 21 23 23 23 24 24 22 22 22 22 22 24 26 28 31 33 35 37 39 42 43 44 46
32 35 40 45 48 52 53 52 52 50 46 40 35 29 25 17 20 21 22 24 27 27 27 25 24 22 20 20 21 23 25 28 30 34 38 40 40 40 41 43 43 44 44
23 27 32 37 41 43 44 43 42 39 35 32 29 20 24 28 24 28 29 29 30 31 31 29 25 23 22 23 25 28 30 33 37 40 44 44 43 44 44 45 43 42 41
20 23 27 30 32 33 34 35 33 31 30 24 29 32 30 34 39 37 34 33 33 34 34 33 31 29 28 28 29 30 32 36 40 44 46 46 47 46 45 45 44 43 39
17 21 23 25 26 28 29 30 31 32 35 40 43 42 45 49 44 39 42 40 38 37 37 37 36 36 36 35 35 36 37 39 41 43 45 46 46 45 45 44 42 40 37
Wind_Direction_850mb
230 233 238 240 240 242 245 249 252 255 258 261 261 260 260 260 262 263 265 268 269 272 272 278 279 282 286 293 297 297 294 292 293 287 296 302 302 298 297 295 272 252 250
236 242 241 241 240 242 244 248 251 253 254 257 258 257 257 257 259 262 264 265 269 270 273 273 282 282 286 288 289 287 291 286 287 292 297 297 298 300 295 288 271 265 248
232 233 236 239 240 241 243 245 246 248 250 251 252 252 255 256 257 259 258 261 263 266 271 270 267 273 279 279 279 285 285 291 290 287 293 295 297 300 294 290 273 263 243
227 229 233 235 236 238 238 238 239 241 243 244 247 250 249 250 250 249 254 257 260 262 258 263 270 274 272 275 276 280 284 286 287 293 297 297 296 294 287 276 264 257 241
223 225 228 230 231 233 234 234 237 239 242 246 248 248 245 246 245 248 249 252 256 260 255 265 270 275 277 280 282 281 277 279 285 291 295 296 295 290 287 283 273 257 241
215 218 221 223 225 228 230 232 236 239 241 242 244 245 246 245 247 250 252 253 257 260 265 271 274 277 280 279 279 286 292 295 291 290 292 292 299 295 289 280 265 253 246
216 213 213 215 218 221 224 227 228 230 232 233 234 235 238 241 247 257 263 264 267 271 271 275 283 287 292 295 295 298 296 296 299 288 285 289 283 285 277 267 261 257 254
205 205 206 208 210 214 217 220 222 224 226 228 229 233 238 244 252 258 264 271 273 274 279 286 288 288 292 296 290 291 285 279 280 282 283 283 288 289 282 273 262 253 263
207 209 211 214 217 219 221 223 224 225 227 230 232 235 240 244 254 263 271 271 267 267 275 278 285 280 283 289 290 283 284 282 276 274 282 287 302 300 281 262 258 270 268
213 217 217 220 222 224 224 225 224 224 227 228 230 232 236 237 244 252 264 265 264 267 273 282 286 293 294 290 295 300 289 293 303 299 297 297 296 286 275 273 269 261 269
217 215 216 219 223 225 226 226 225 225 224 224 224 224 225 229 242 251 260 264 264 260 260 269 275 279 283 289 295 288 287 295 293 290 288 290 290 287 284 282 271 271 275
215 214 215 221 227 230 229 228 224 223 220 216 211 207 205 211 226 244 248 253 258 258 266 267 274 291 299 293 288 284 292 297 295 296 292 292 290 287 283 279 272 271 275
212 214 217 224 229 230 229 225 219 215 211 206 199 196 197 204 217 224 222 222 232 253 277 288 287 292 296 296 290 291 294 283 285 290 290 288 283 281 277 278 276 280 285
214 216 219 222 223 221 218 214 211 207 201 197 196 196 196 200 201 201 209 221 219 221 238 274 304 305 299 285 287 297 301 298 295 293 290 290 288 288 285 285 283 285 289
213 216 218 219 217 213 209 206 200 195 192 198 193 190 191 188 189 188 194 191 179 170 214 225 297 296 294 288 301 309 304 297 295 297 300 302 301 297 294 290 290 294 295
213 214 216 215 210 206 199 190 184 189 193 188 186 184 184 181 175 179 177 174 171 164 212 16 20 6 346 349 350 344 335 332 328 317 312 309 307 305 303 300 297 297 300
217 219 214 209 204 198 192 191 186 181 183 181 180 177 171 178 178 176 172 175 167 167 84 347 351 350 344 340 334 330 330 328 323 317 313 311 310 308 309 309 307 304 304
215 215 212 204 198 194 192 192 195 194 188 180 173 175 177 178 176 176 176 180 176 178 291 317 319 316 315 319 319 316 313 312 310 310 311 309 307 306 305 304 302 300 302
209 206 203 197 192 193 191 192 191 186 179 178 179 178 178 179 181 182 185 193 230 271 293 302 307 309 308 308 307 308 309 307 304 303 302 301 300 302 300 300 301 303 303
203 203 199 195 193 192 193 194 189 184 180 178 178 181 183 182 187 191 205 234 261 280 290 296 300 303 306 306 306 305 304 303 303 304 304 301 298 296 293 292 288 287 287
198 198 197 196 195 195 194 192 188 183 181 180 183 182 181 187 199 215 237 259 276 285 291 296 298 300 304 305 307 309 311 310 312 316 314 309 309 306 302 299 297 295 293
206 204 202 199 196 192 189 186 184 182 182 184 183 184 193 204 213 234 255 268 276 283 286 289 295 299 300 301 305 310 314 317 322 324 323 322 321 317 313 311 307 303 300
210 208 200 193 191 188 185 184 183 184 186 189 194 201 210 225 244 254 270 281 284 287 288 289 291 293 294 296 301 308 314 318 322 324 326 327 327 323 320 317 315 312 309
188 186 188 186 183 184 184 184 186 190 195 203 211 227 241 246 264 274 277 278 282 284 285 283 278 275 280 287 294 302 310 315 319 320 319 319 318 318 316 313 313 312 311
170 174 179 182 186 191 195 198 202 209 218 229 244 252 268 274 272 270 275 277 277 275 273 271 270 272 275 281 289 297 303 307 308 310 313 314 314 314 313 313 312 312 313
196 199 202 205 209 214 221 227 234 241 245 247 252 257 262 264 264 271 272 272 270 268 266 267 270 273 277 282 285 289 295 300 303 303 303 305 307 308 308 308 309 310 309